Location: Gudip?du
(17.0263°N, 80.8301°E)
Time: 12:37:56
(UTC+00:00)

IRS-1C - Pass Details

Date: 03 August 2024
Orbit: 814 x 815 km, 99.0° (Epoch: 11 September)

Event Time Altitude Azimuth Distance (km) Brightness Sun altitude
Rises 23:42:23 0° 11° (N) 3,331 7.8 -8.7°
Reaches altitude 10° 23:44:43 10° 10° (N) 2,398 7.0 -8.2°
Maximum altitude 23:50:01 81° 284° (WNW) 825 4.1 -7.0°
Drops below altitude 10° 23:55:19 10° 197° (SSW) 2,394 6.2 -5.8°
Sets 23:57:39 0° 196° (SSW) 3,324 6.9 -5.3°
